User: anonymous   Login
Location: Unspecified
(0.0000°N, 0.0000°E)
Time: 18:54:49
(UTC+00:00)
Language:

PRISMA - Orbit

View from above orbital plane
View from above orbital plane
View from above satellite
View from above satellite

Ground track
Ground track

The orbit data is extracted from the following two-line orbital elements,

1 36599U 10028B   17145.87439087 +.00000065 +00000-0 +25493-4 0  9995
2 36599 098.3865 353.2753 0056775 035.6570 324.8402 14.55924751367368
Epoch (UTC): 25 May 2017 20:59:07
Eccentricity: 0.0056775
inclination: 98.3865°
perigee height: 666 km
apogee height: 746 km
right ascension of ascending node: 353.2753°
argument of perigee: 35.6570°
revolutions per day: 14.55924751
mean anomaly at epoch: 324.8402°
orbit number at epoch: 36736

The dashed part of the orbit path shows where the satellite is in the earth's shadow,  

DLR